This demonstration page uses our WeatherBlox Daily Observations layout. Learn more.

Left ArrowRight Arrow

44.8408, -93.29828

Hourly Observations for April 1, 2017

Temp ( °F °C ) Dew Point ( °F °C ) Humidity (%) Winds ( mph kmh ) Pressure ( in mb ) Visibility ( mi km ) Precip ( " mm )
12:53 am 00:53 Mostly Cloudy 42 5.6 28 -2.2 58 58 Calm 30.15 1021 10 16 0.00 0.00
1:53 am 01:53 Partly Cloudy 40 4.4 29 -1.7 65 65 Calm 30.17 1022 10 16 0.00 0.00
2:53 am 02:53 Mostly Cloudy 39 3.9 31 -0.6 73 73 E 3 6 30.16 1022 10 16 0.00 0.00
3:53 am 03:53 Mostly Cloudy 39 3.9 31 -0.6 73 73 Calm 30.18 1022 10 16 0.00 0.00
4:53 am 04:53 Mostly Cloudy 38 3.3 29 -1.7 70 70 Calm 30.19 1022 10 16 0.00 0.00
5:53 am 05:53 Mostly Cloudy 36 2.2 28 -2.2 73 73 Calm 30.20 1023 10 16 0.00 0.00
6:53 am 06:53 Partly Cloudy 35 1.7 28 -2.2 76 76 Calm 30.22 1023 10 16 0.00 0.00
7:53 am 07:53 Partly Cloudy 38 3.3 31 -0.6 76 76 Calm 30.23 1024 10 16 0.00 0.00
8:53 am 08:53 Mostly Sunny 43 6.1 31 -0.6 63 63 Calm 30.24 1024 10 16 0.00 0.00
9:53 am 09:53 Sunny 51 10.6 26 -3.3 38 38 WSW 3 6 30.24 1024 10 16 0.00 0.00
10:53 am 10:53 Mostly Sunny 55 12.8 24 -4.4 30 30 S 3 6 30.23 1024 10 16 0.00 0.00
11:53 am 11:53 Sunny 59 15 23 -5 25 25 VRB 3 6 30.22 1023 10 16 0.00 0.00
12:53 pm 12:53 Sunny 62 16.7 23 -5 22 22 W 8 13 30.21 1023 10 16 0.00 0.00
1:53 pm 13:53 Partly Cloudy 63 17.2 25 -3.9 24 24 WNW 7 11 30.19 1022 10 16 0.00 0.00
2:53 pm 14:53 Partly Cloudy 65 18.3 28 -2.2 25 25 NW 12 19 30.16 1022 10 16 0.00 0.00
3:53 pm 15:53 Partly Cloudy 65 18.3 29 -1.7 26 26 NW 12 19 30.14 1021 10 16 0.00 0.00
4:53 pm 16:53 Partly Cloudy 65 18.3 30 -1.1 27 27 NNW 6 9 30.14 1021 10 16 0.00 0.00
5:53 pm 17:53 Partly Cloudy 65 18.3 31 -0.6 28 28 WNW 3 6 30.13 1020 10 16 0.00 0.00
6:53 pm 18:53 Partly Cloudy 55 13 27 -3 33 33 NE 8 13 30.03 1017 10 16 0.00 0.00
7:53 pm 19:53 Partly Cloudy 61 16.1 30 -1.1 31 31 SW 3 6 30.12 1020 10 16 0.00 0.00
8:53 pm 20:53 Partly Cloudy 58 14.4 31 -0.6 36 36 NW 5 7 30.12 1020 10 16 0.00 0.00
9:53 pm 21:53 Mostly Clear 53 11.7 33 0.6 47 47 Calm 30.12 1020 10 16 0.00 0.00
10:53 pm 22:53 Mostly Clear 54 12.2 33 0.6 45 45 WSW 5 7 30.12 1020 10 16 0.00 0.00
11:53 pm 23:53 Mostly Clear 54 12.2 28 -2.2 37 37 SW 5 7 30.11 1020 10 16 0.00 0.00

Powered by AerisWeather